Regional Weather Roundup
Issued by NWS Burlington, VT

Current Version | Previous Version | Text Only | Print | Product List | Glossary Off
Versions: 1 2 3 4 5 6 7 8 9 10 11 12 13 14 15 16 17 18 19 20 21 22 23 24 25 26 27 28 29 30 31 32 33 34 35 36 37 38 39 40 41 42 43 44 45 46 47 48 49 50

000
ASUS41 KBTV 100510
RWRBTV
VERMONT REGIONAL WEATHER ROUNDUP
NATIONAL WEATHER SERVICE BURLINGTON VT
100 AM EDT THU JUL 10 2014

NOTE: "FAIR" INDICATES FEW OR NO CLOUDS BELOW 12,000 FEET WITH NO
SIGNIFICANT WEATHER AND/OR OBSTRUCTIONS TO VISIBILITY.

* THESE REPORTS ARE NOT UNDER NWS QUALITY CONTROL AND/OR DO NOT
  REPORT WEATHER SUCH AS PRECIPITATION AND FOG.

VTZ001>019-100600-
_____VERMONT_____


CITY           SKY/WX    TMP DP  RH WIND       PRES   REMARKS
BURLINGTON     CLEAR     67  52  58 W10       29.94R
MONTPELIER     CLEAR     65  56  72 SW3       29.99R
MORRISVILLE    PTCLDY    59  58  96 CALM      29.96R
ST. JOHNSBURY*   N/A     63  62  97 MISG      29.93R
LYNDONVILLE*   FAIR      63  59  88 CALM      29.97R
MIDDLEBURY*    FAIR      64  63  99 SE3       29.96R
RUTLAND*       PTCLDY    63  61  94 S6        29.99R
SPRINGFIELD    FOG       62  62 100 CALM      29.98R VSB 1/2
HIGHGATE*      FAIR      64  56  75 W3        29.93R
NEWPORT*       CLOUDY   N/A N/A N/A CALM      29.95S
BENNINGTON     FOG       59  57  93 CALM      30.01R VSB 1/2

_____LAKE CHAMPLAIN_____


CITY           SKY/WX    TMP DP  RH WIND       PRES   REMARKS
COLCHESTER RF*   N/A     66  55  68 W26         N/A
DIAMOND ISL*     N/A     68  52  56 W13         N/A

$$

NYZ007-026>031-035-052-083-100600-
_____NORTHERN NEW YORK_____


CITY           SKY/WX    TMP DP  RH WIND       PRES   REMARKS
PLATTSBURGH    PTCLDY    64  54  69 SW6       29.94R
SARANAC LAKE   CLEAR     54  50  86 SW5       29.98R
MASSENA        CLEAR     60  56  86 SW9       29.95R
OGDENSBURG*    CLEAR     57  55  94 SW3       29.97R
POTSDAM*       CLEAR     57  55  94 SW8       29.97R
WATERTOWN      CLEAR     59  52  77 S6        30.00R
FT DRUM        CLEAR     58  54  89 SW6       30.00R
ALBANY         PTCLDY    64  56  75 CALM      30.01R
GLENS FALLS    CLEAR     64  57  78 MISG      29.97R

$$
NHZ002-005-011-100600-
_____NEW HAMPSHIRE_____


CITY           SKY/WX    TMP DP  RH WIND       PRES   REMARKS
LEBANON        PTCLDY    65  62  90 VRB3      29.95R
KEENE          MOCLDY    64  55  72 CALM      29.98S
MT WASHINGTON  DRZL/FOG  50  50 100 W45G51      N/A  VSB 0
WHITEFIELD     MOCLDY    63  60  90 NW3       29.95R

$$

_____REGIONAL QUEBEC LOCATIONS_____


CITY           SKY/WX    TMP DP  RH WIND       PRES   REMARKS

_____REGIONAL ONTARIO LOCATIONS_____


CITY           SKY/WX    TMP DP  RH WIND       PRES   REMARKS

______KEY______
VSB  - VISIBILITY IN MILES
WCI  - WIND CHILL INDEX
HX   - HEAT INDEX
$$
NNNN



USA.gov is the U.S. government's official web portal to all federal, state and local government web resources and services.